TimeCST,TemperatureF,Dew PointF,Humidity,Sea Level PressureIn,VisibilityMPH,Wind Direction,Wind SpeedMPH,Gust SpeedMPH,PrecipitationIn,Events,Conditions,WindDirDegrees,DateUTC
12:53 AM,3.9,1.0,88,30.20,10.0,NW,6.9,-,N/A,,Clear,310,2013-01-02 06:53:00
1:53 AM,5.0,1.0,84,30.18,10.0,NW,8.1,-,N/A,,Clear,320,2013-01-02 07:53:00
2:53 AM,3.2,-0.4,85,30.05,10.0,WNW,5.8,-,N/A,,Scattered Clouds,290,2013-01-02 08:53:00
3:53 AM,12.9,9.0,84,30.17,10.0,NW,5.8,-,N/A,,Overcast,320,2013-01-02 09:53:00
4:53 AM,16.0,12.0,84,30.17,10.0,NW,5.8,-,N/A,,Overcast,320,2013-01-02 10:53:00
5:53 AM,19.4,17.6,93,30.06,5.0,WNW,5.8,-,N/A,Snow,Light Snow,290,2013-01-02 11:53:00
6:53 AM,27.0,24.1,89,30.19,6.0,NW,10.4,-,0.00,Snow,Light Snow,310,2013-01-02 12:53:00
7:53 AM,26.1,23.0,88,30.21,5.0,WNW,9.2,-,0.00,Snow,Light Snow,300,2013-01-02 13:53:00
8:53 AM,27.0,24.1,89,30.21,10.0,West,9.2,-,0.00,,Overcast,280,2013-01-02 14:53:00
9:53 AM,28.0,23.0,81,30.24,10.0,WNW,11.5,-,N/A,,Partly Cloudy,290,2013-01-02 15:53:00
10:53 AM,30.9,23.0,72,30.24,10.0,WNW,15.0,-,N/A,,Clear,300,2013-01-02 16:53:00
11:53 AM,33.1,21.9,64,30.23,10.0,NW,16.1,-,N/A,,Partly Cloudy,320,2013-01-02 17:53:00
12:28 PM,33.8,23.0,65,30.11,10.0,NW,13.8,-,N/A,,Mostly Cloudy,320,2013-01-02 18:28:00
12:53 PM,33.1,23.0,66,30.22,10.0,NW,12.7,20.7,N/A,,Mostly Cloudy,320,2013-01-02 18:53:00
1:39 PM,32.0,23.0,69,30.09,10.0,NNW,15.0,-,N/A,,Overcast,330,2013-01-02 19:39:00
1:49 PM,32.0,23.0,69,30.09,10.0,WNW,15.0,-,N/A,,Overcast,300,2013-01-02 19:49:00
1:53 PM,32.0,23.0,69,30.22,10.0,NW,12.7,-,N/A,,Overcast,310,2013-01-02 19:53:00
2:24 PM,32.0,23.0,69,30.09,10.0,NNW,11.5,21.9,N/A,,Overcast,330,2013-01-02 20:24:00
2:53 PM,33.1,21.0,61,30.22,10.0,NNW,13.8,23.0,N/A,,Overcast,330,2013-01-02 20:53:00
3:53 PM,33.1,21.0,61,30.21,10.0,NW,12.7,-,N/A,,Overcast,320,2013-01-02 21:53:00
4:53 PM,32.0,21.2,64,30.12,10.0,NW,11.5,-,N/A,,Overcast,310,2013-01-02 22:53:00
5:53 PM,28.9,21.9,75,30.24,10.0,NW,8.1,-,N/A,,Overcast,310,2013-01-02 23:53:00
6:53 PM,26.1,19.9,78,30.26,10.0,WNW,6.9,-,0.00,,Overcast,300,2013-01-03 00:53:00
7:37 PM,26.6,21.2,80,30.18,10.0,WNW,5.8,-,N/A,,Overcast,300,2013-01-03 01:37:00
7:53 PM,27.0,21.0,78,30.28,10.0,West,8.1,-,N/A,,Overcast,280,2013-01-03 01:53:00
8:53 PM,26.1,19.0,75,30.30,10.0,NW,6.9,-,N/A,,Overcast,320,2013-01-03 02:53:00
9:49 PM,24.8,17.6,74,30.23,10.0,NNW,16.1,19.6,N/A,,Overcast,340,2013-01-03 03:49:00
9:53 PM,25.0,17.1,72,30.33,10.0,NNW,18.4,23.0,N/A,,Overcast,340,2013-01-03 03:53:00
10:41 PM,24.8,15.8,69,30.26,10.0,NNW,10.4,17.3,N/A,,Overcast,340,2013-01-03 04:41:00
10:53 PM,24.1,15.1,69,30.36,10.0,NNW,11.5,19.6,N/A,,Overcast,330,2013-01-03 04:53:00
11:53 PM,24.1,16.0,71,30.37,10.0,NNW,10.4,-,N/A,,Overcast,340,2013-01-03 05:53:00